Time,TemperatureF,DewpointF,PressureIn,WindDirection,WindDirectionDegrees,WindSpeedMPH,WindSpeedGustMPH,Humidity,HourlyPrecipIn,Conditions,Clouds,dailyrainin,SoftwareType,DateUTC
2013-09-28 00:01:00,55.5,53.0,30.28,WSW,247,1.4,1.4,89,0.00,,,0.00,Rainwise IP-100,2013-09-28 04:01:00,
2013-09-28 00:06:00,55.1,53.0,30.28,WSW,247,0.0,2.0,90,0.00,,,0.00,Rainwise IP-100,2013-09-28 04:06:00,
2013-09-28 00:11:00,55.0,53.0,30.28,WSW,247,0.0,1.0,91,0.00,,,0.00,Rainwise IP-100,2013-09-28 04:11:00,
2013-09-28 00:13:00,54.8,52.0,30.28,WSW,247,0.0,1.0,91,0.00,,,0.00,Rainwise IP-100,2013-09-28 04:13:00,
2013-09-28 00:18:00,54.7,52.0,30.28,WSW,247,0.0,0.0,91,0.00,,,0.00,Rainwise IP-100,2013-09-28 04:18:00,
2013-09-28 00:23:00,54.4,52.0,30.28,WSW,247,1.4,1.4,91,0.00,,,0.00,Rainwise IP-100,2013-09-28 04:23:00,
2013-09-28 00:28:00,54.2,52.0,30.28,WSW,247,0.0,1.0,92,0.00,,,0.00,Rainwise IP-100,2013-09-28 04:28:00,
2013-09-28 00:33:00,54.1,52.0,30.28,WSW,247,1.4,1.4,92,0.00,,,0.00,Rainwise IP-100,2013-09-28 04:33:00,
2013-09-28 00:38:00,54.1,52.0,30.28,WSW,247,0.0,1.0,93,0.00,,,0.00,Rainwise IP-100,2013-09-28 04:38:00,
2013-09-28 00:43:00,54.0,52.0,30.29,WSW,247,0.0,2.0,93,0.00,,,0.00,Rainwise IP-100,2013-09-28 04:43:00,
2013-09-28 00:48:00,54.0,52.0,30.29,WSW,247,0.0,0.0,94,0.00,,,0.00,Rainwise IP-100,2013-09-28 04:48:00,
2013-09-28 00:53:00,53.9,52.0,30.28,WSW,247,0.0,1.0,94,0.00,,,0.00,Rainwise IP-100,2013-09-28 04:53:00,
2013-09-28 00:58:00,53.8,52.0,30.28,WSW,247,0.0,1.0,94,0.00,,,0.00,Rainwise IP-100,2013-09-28 04:58:00,
2013-09-28 01:03:00,53.7,51.0,30.28,WSW,247,0.0,1.0,93,0.00,,,0.00,Rainwise IP-100,2013-09-28 05:03:00,
2013-09-28 01:08:00,53.7,52.0,30.29,WSW,247,0.0,2.0,94,0.00,,,0.00,Rainwise IP-100,2013-09-28 05:08:00,
2013-09-28 01:13:00,53.6,52.0,30.29,WSW,247,0.0,2.0,94,0.00,,,0.00,Rainwise IP-100,2013-09-28 05:13:00,
2013-09-28 01:18:00,53.2,50.0,30.29,WSW,247,0.0,1.0,93,0.00,,,0.00,Rainwise IP-100,2013-09-28 05:18:00,
2013-09-28 01:23:00,52.8,51.0,30.29,WSW,247,0.0,0.0,94,0.00,,,0.00,Rainwise IP-100,2013-09-28 05:23:00,
2013-09-28 01:28:00,52.6,51.0,30.29,SSE,157,0.0,1.0,94,0.00,,,0.00,Rainwise IP-100,2013-09-28 05:28:00,
2013-09-28 01:33:00,52.4,50.0,30.29,SSE,157,0.0,2.0,95,0.00,,,0.00,Rainwise IP-100,2013-09-28 05:33:00,
2013-09-28 01:38:00,52.5,51.0,30.30,SSE,157,0.0,1.0,95,0.00,,,0.00,Rainwise IP-100,2013-09-28 05:38:00,
2013-09-28 01:43:00,52.6,51.0,30.29,SSE,157,2.6,2.6,95,0.00,,,0.00,Rainwise IP-100,2013-09-28 05:43:00,
2013-09-28 01:48:00,52.4,50.0,30.30,SSE,157,2.1,2.1,95,0.00,,,0.00,Rainwise IP-100,2013-09-28 05:48:00,
2013-09-28 01:53:00,52.1,50.0,30.29,SSE,157,0.0,3.0,95,0.00,,,0.00,Rainwise IP-100,2013-09-28 05:53:00,
2013-09-28 01:58:00,51.9,50.0,30.29,SSE,157,0.0,2.0,95,0.00,,,0.00,Rainwise IP-100,2013-09-28 05:58:00,
2013-09-28 02:03:00,51.6,50.0,30.29,SSE,157,0.0,2.0,95,0.00,,,0.00,Rainwise IP-100,2013-09-28 06:03:00,
2013-09-28 02:08:00,51.4,50.0,30.29,SSE,157,1.9,1.9,96,0.00,,,0.00,Rainwise IP-100,2013-09-28 06:08:00,
2013-09-28 02:13:00,51.2,50.0,30.29,SSE,157,0.0,3.0,96,0.00,,,0.00,Rainwise IP-100,2013-09-28 06:13:00,
2013-09-28 02:18:00,51.0,50.0,30.29,SSE,157,0.0,1.0,96,0.00,,,0.00,Rainwise IP-100,2013-09-28 06:18:00,
2013-09-28 02:23:00,51.1,50.0,30.29,SSE,157,0.0,1.0,96,0.00,,,0.00,Rainwise IP-100,2013-09-28 06:23:00,
2013-09-28 02:28:00,51.0,50.0,30.29,SSE,157,0.0,0.0,96,0.00,,,0.00,Rainwise IP-100,2013-09-28 06:28:00,
2013-09-28 02:33:00,50.8,50.0,30.29,SSE,157,0.0,1.0,96,0.00,,,0.00,Rainwise IP-100,2013-09-28 06:33:00,
2013-09-28 02:38:00,50.9,50.0,30.29,SSE,157,0.0,1.0,97,0.00,,,0.00,Rainwise IP-100,2013-09-28 06:38:00,
2013-09-28 02:43:00,51.1,50.0,30.29,SSE,157,0.0,1.0,97,0.00,,,0.00,Rainwise IP-100,2013-09-28 06:43:00,
2013-09-28 02:48:00,51.1,50.0,30.29,SSE,157,0.0,0.0,97,0.00,,,0.00,Rainwise IP-100,2013-09-28 06:48:00,
2013-09-28 02:53:00,51.2,50.0,30.29,SSE,157,0.0,0.0,97,0.00,,,0.00,Rainwise IP-100,2013-09-28 06:53:00,
2013-09-28 02:58:00,51.1,50.0,30.29,SSE,157,0.0,0.0,97,0.00,,,0.00,Rainwise IP-100,2013-09-28 06:58:00,
2013-09-28 03:03:00,51.2,50.0,30.29,SSE,157,0.0,0.0,97,0.00,,,0.00,Rainwise IP-100,2013-09-28 07:03:00,
2013-09-28 03:08:00,51.0,50.0,30.29,SSE,157,0.0,1.0,97,0.00,,,0.00,Rainwise IP-100,2013-09-28 07:08:00,
2013-09-28 03:13:00,50.7,50.0,30.30,SSE,157,0.0,0.0,97,0.00,,,0.00,Rainwise IP-100,2013-09-28 07:13:00,
2013-09-28 03:18:00,50.8,50.0,30.30,SSE,157,0.0,0.0,98,0.00,,,0.00,Rainwise IP-100,2013-09-28 07:18:00,
2013-09-28 03:23:00,50.9,51.0,30.30,SSE,157,0.0,0.0,99,0.00,,,0.00,Rainwise IP-100,2013-09-28 07:23:00,
2013-09-28 03:28:00,50.7,50.0,30.30,SSE,157,0.0,0.0,99,0.00,,,0.00,Rainwise IP-100,2013-09-28 07:28:00,
2013-09-28 03:33:00,50.4,50.0,30.30,SSE,157,0.0,0.0,99,0.00,,,0.00,Rainwise IP-100,2013-09-28 07:33:00,
2013-09-28 03:38:00,50.2,50.0,30.30,SSE,157,0.0,0.0,99,0.00,,,0.00,Rainwise IP-100,2013-09-28 07:38:00,
2013-09-28 03:43:00,50.1,50.0,30.30,SSE,157,0.0,1.0,99,0.00,,,0.00,Rainwise IP-100,2013-09-28 07:43:00,
2013-09-28 03:48:00,50.3,50.0,30.30,SSE,157,0.0,0.0,99,0.00,,,0.00,Rainwise IP-100,2013-09-28 07:48:00,
2013-09-28 03:53:00,50.7,50.0,30.30,SSE,157,0.0,0.0,100,0.00,,,0.00,Rainwise IP-100,2013-09-28 07:53:00,
2013-09-28 03:58:00,50.8,50.0,30.30,SSE,157,0.0,0.0,100,0.00,,,0.00,Rainwise IP-100,2013-09-28 07:58:00,
2013-09-28 04:03:00,50.6,50.0,30.30,SSE,157,0.0,0.0,100,0.00,,,0.00,Rainwise IP-100,2013-09-28 08:03:00,
2013-09-28 04:08:00,50.3,50.0,30.31,SSW,202,1.2,1.2,100,0.00,,,0.00,Rainwise IP-100,2013-09-28 08:08:00,
2013-09-28 04:13:00,50.1,50.0,30.30,SSW,202,1.2,1.2,100,0.00,,,0.00,Rainwise IP-100,2013-09-28 08:13:00,
2013-09-28 04:18:00,49.9,50.0,30.30,SSW,202,1.6,1.6,100,0.00,,,0.00,Rainwise IP-100,2013-09-28 08:18:00,
2013-09-28 04:23:00,49.8,50.0,30.31,SSW,202,0.0,1.0,100,0.00,,,0.00,Rainwise IP-100,2013-09-28 08:23:00,
2013-09-28 04:28:00,49.6,50.0,30.30,SSW,202,0.0,1.0,100,0.00,,,0.00,Rainwise IP-100,2013-09-28 08:28:00,
2013-09-28 04:33:00,49.7,50.0,30.31,SSW,202,0.0,1.0,100,0.00,,,0.00,Rainwise IP-100,2013-09-28 08:33:00,
2013-09-28 04:38:00,49.8,50.0,30.31,SSW,202,1.2,1.2,100,0.00,,,0.00,Rainwise IP-100,2013-09-28 08:38:00,
2013-09-28 04:43:00,49.9,50.0,30.31,SSW,202,0.0,1.0,100,0.00,,,0.00,Rainwise IP-100,2013-09-28 08:43:00,
2013-09-28 04:48:00,49.9,50.0,30.31,SSW,202,1.2,1.2,100,0.00,,,0.00,Rainwise IP-100,2013-09-28 08:48:00,
2013-09-28 04:53:00,49.6,50.0,30.32,SSW,202,1.6,1.6,100,0.00,,,0.00,Rainwise IP-100,2013-09-28 08:53:00,
2013-09-28 04:58:00,49.4,49.0,30.31,SSW,202,0.0,1.0,100,0.00,,,0.00,Rainwise IP-100,2013-09-28 08:58:00,
2013-09-28 05:03:00,49.4,49.0,30.32,SSW,202,1.9,2.0,100,0.00,,,0.00,Rainwise IP-100,2013-09-28 09:03:00,
2013-09-28 05:08:00,49.5,50.0,30.32,SSW,202,1.2,1.2,100,0.00,,,0.00,Rainwise IP-100,2013-09-28 09:08:00,
2013-09-28 05:13:00,49.5,50.0,30.32,SW,225,1.2,1.2,100,0.00,,,0.00,Rainwise IP-100,2013-09-28 09:13:00,
2013-09-28 05:18:00,49.4,49.0,30.32,SW,225,0.0,2.0,100,0.00,,,0.00,Rainwise IP-100,2013-09-28 09:18:00,
2013-09-28 05:23:00,49.5,50.0,30.32,SW,225,0.0,1.0,100,0.00,,,0.00,Rainwise IP-100,2013-09-28 09:23:00,
2013-09-28 05:28:00,49.6,50.0,30.32,NNW,337,0.0,1.0,100,0.00,,,0.00,Rainwise IP-100,2013-09-28 09:28:00,
2013-09-28 05:33:00,49.6,50.0,30.32,NNW,337,0.0,0.0,100,0.00,,,0.00,Rainwise IP-100,2013-09-28 09:33:00,
2013-09-28 05:38:00,49.5,50.0,30.32,NNW,337,0.0,0.0,100,0.00,,,0.00,Rainwise IP-100,2013-09-28 09:38:00,
2013-09-28 05:43:00,49.2,49.0,30.32,NNW,337,1.2,1.2,100,0.00,,,0.00,Rainwise IP-100,2013-09-28 09:43:00,
2013-09-28 05:48:00,48.9,49.0,30.32,NNW,337,1.6,2.0,100,0.00,,,0.00,Rainwise IP-100,2013-09-28 09:48:00,
2013-09-28 05:53:00,48.9,49.0,30.32,NNW,337,0.0,2.0,100,0.00,,,0.00,Rainwise IP-100,2013-09-28 09:53:00,
2013-09-28 05:58:00,49.0,49.0,30.33,NNW,337,0.0,0.0,100,0.00,,,0.00,Rainwise IP-100,2013-09-28 09:58:00,
2013-09-28 06:03:00,49.0,49.0,30.33,NNW,337,0.0,0.0,100,0.00,,,0.00,Rainwise IP-100,2013-09-28 10:03:00,
2013-09-28 06:08:00,48.7,49.0,30.33,NNW,337,0.0,0.0,100,0.00,,,0.00,Rainwise IP-100,2013-09-28 10:08:00,
2013-09-28 06:13:00,48.4,48.0,30.32,NNW,337,1.6,2.0,100,0.00,,,0.00,Rainwise IP-100,2013-09-28 10:13:00,
2013-09-28 06:18:00,48.3,48.0,30.33,NNW,337,0.0,2.0,100,0.00,,,0.00,Rainwise IP-100,2013-09-28 10:18:00,
2013-09-28 06:23:00,48.4,48.0,30.33,NNW,337,0.0,0.0,100,0.00,,,0.00,Rainwise IP-100,2013-09-28 10:23:00,
2013-09-28 06:28:00,48.4,48.0,30.34,NNW,337,1.2,0.0,100,0.00,,,0.00,Rainwise IP-100,2013-09-28 10:28:00,
2013-09-28 06:33:00,48.3,48.0,30.34,NNW,337,0.0,1.0,100,0.00,,,0.00,Rainwise IP-100,2013-09-28 10:33:00,
2013-09-28 06:38:00,48.2,48.0,30.34,NNW,337,0.0,1.0,100,0.00,,,0.00,Rainwise IP-100,2013-09-28 10:38:00,
2013-09-28 06:43:00,48.2,48.0,30.34,NW,315,0.0,1.0,100,0.00,,,0.00,Rainwise IP-100,2013-09-28 10:43:00,
2013-09-28 06:48:00,48.4,48.0,30.34,WSW,247,0.0,0.0,100,0.00,,,0.00,Rainwise IP-100,2013-09-28 10:48:00,
2013-09-28 06:53:00,48.4,48.0,30.35,WSW,247,0.0,0.0,100,0.00,,,0.00,Rainwise IP-100,2013-09-28 10:53:00,
2013-09-28 06:58:00,48.5,49.0,30.35,WSW,247,1.4,1.4,100,0.00,,,0.00,Rainwise IP-100,2013-09-28 10:58:00,
2013-09-28 07:03:00,48.8,49.0,30.35,WSW,247,0.0,1.0,100,0.00,,,0.00,Rainwise IP-100,2013-09-28 11:03:00,
2013-09-28 07:08:00,48.9,49.0,30.35,WSW,247,1.9,1.9,100,0.00,,,0.00,Rainwise IP-100,2013-09-28 11:08:00,
2013-09-28 07:13:00,49.1,49.0,30.35,WSW,247,1.6,2.0,100,0.00,,,0.00,Rainwise IP-100,2013-09-28 11:13:00,
2013-09-28 07:18:00,49.4,49.0,30.35,WSW,247,0.0,1.0,100,0.00,,,0.00,Rainwise IP-100,2013-09-28 11:18:00,
2013-09-28 07:23:00,49.9,50.0,30.35,WSW,247,0.0,1.0,100,0.00,,,0.00,Rainwise IP-100,2013-09-28 11:23:00,
2013-09-28 07:28:00,50.5,50.0,30.36,WSW,247,0.0,0.0,100,0.00,,,0.00,Rainwise IP-100,2013-09-28 11:28:00,
2013-09-28 07:33:00,50.9,51.0,30.36,NNW,337,2.1,0.0,100,0.00,,,0.00,Rainwise IP-100,2013-09-28 11:33:00,
2013-09-28 07:38:00,51.3,51.0,30.36,NNW,337,4.0,4.0,100,0.00,,,0.00,Rainwise IP-100,2013-09-28 11:38:00,
2013-09-28 07:43:00,51.4,51.0,30.36,NW,315,2.6,4.0,100,0.00,,,0.00,Rainwise IP-100,2013-09-28 11:43:00,
2013-09-28 07:48:00,51.4,51.0,30.36,NW,315,3.5,4.0,100,0.00,,,0.00,Rainwise IP-100,2013-09-28 11:48:00,
2013-09-28 07:51:00,51.6,52.0,30.36,NW,315,2.3,4.0,100,0.00,,,0.00,Rainwise IP-100,2013-09-28 11:51:00,
2013-09-28 07:56:00,51.9,52.0,30.36,NNW,337,3.3,4.0,100,0.00,,,0.00,Rainwise IP-100,2013-09-28 11:56:00,
2013-09-28 08:01:00,52.1,52.0,30.36,NNW,337,4.0,4.0,99,0.00,,,0.00,Rainwise IP-100,2013-09-28 12:01:00,
2013-09-28 08:06:00,52.3,52.0,30.36,NNE,22,0.0,4.0,99,0.00,,,0.00,Rainwise IP-100,2013-09-28 12:06:00,
2013-09-28 08:11:00,53.0,53.0,30.37,NNE,22,1.6,3.0,99,0.00,,,0.00,Rainwise IP-100,2013-09-28 12:11:00,
2013-09-28 08:16:00,53.9,54.0,30.37,NNE,22,1.2,2.0,99,0.00,,,0.00,Rainwise IP-100,2013-09-28 12:16:00,
2013-09-28 08:21:00,54.9,55.0,30.37,NNE,22,0.0,1.0,99,0.00,,,0.00,Rainwise IP-100,2013-09-28 12:21:00,
2013-09-28 08:26:00,55.8,56.0,30.37,East,90,0.0,1.0,99,0.00,,,0.00,Rainwise IP-100,2013-09-28 12:26:00,
2013-09-28 08:31:00,55.6,55.0,30.37,NNE,22,2.1,2.1,98,0.00,,,0.00,Rainwise IP-100,2013-09-28 12:31:00,
2013-09-28 08:36:00,55.4,54.0,30.36,NNW,337,2.8,3.0,95,0.00,,,0.00,Rainwise IP-100,2013-09-28 12:36:00,
2013-09-28 08:41:00,55.5,54.0,30.37,NNW,337,1.9,3.0,93,0.00,,,0.00,Rainwise IP-100,2013-09-28 12:41:00,
2013-09-28 08:46:00,55.2,53.0,30.37,NNW,337,3.7,3.7,92,0.00,,,0.00,Rainwise IP-100,2013-09-28 12:46:00,
2013-09-28 08:51:00,55.4,53.0,30.37,NW,315,3.7,4.0,91,0.00,,,0.00,Rainwise IP-100,2013-09-28 12:51:00,
2013-09-28 08:56:00,55.4,53.0,30.37,NNW,337,3.0,4.0,90,0.00,,,0.00,Rainwise IP-100,2013-09-28 12:56:00,
2013-09-28 09:01:00,55.4,53.0,30.37,NNW,337,4.2,5.0,90,0.00,,,0.00,Rainwise IP-100,2013-09-28 13:01:00,
2013-09-28 09:06:00,55.2,53.0,30.37,NW,315,4.2,5.0,90,0.00,,,0.00,Rainwise IP-100,2013-09-28 13:06:00,
2013-09-28 09:11:00,54.7,52.0,30.37,NNW,337,4.9,4.9,90,0.00,,,0.00,Rainwise IP-100,2013-09-28 13:11:00,
2013-09-28 09:16:00,54.4,52.0,30.37,NNW,337,4.4,5.0,91,0.00,,,0.00,Rainwise IP-100,2013-09-28 13:16:00,
2013-09-28 09:21:00,54.8,52.0,30.37,NNW,337,3.7,4.0,91,0.00,,,0.00,Rainwise IP-100,2013-09-28 13:21:00,
2013-09-28 09:26:00,55.2,53.0,30.37,NNW,337,3.7,4.0,91,0.00,,,0.00,Rainwise IP-100,2013-09-28 13:26:00,
2013-09-28 09:31:00,55.6,53.0,30.37,NNW,337,2.8,4.0,90,0.00,,,0.00,Rainwise IP-100,2013-09-28 13:31:00,
2013-09-28 09:36:00,55.8,53.0,30.37,NNW,337,4.0,4.0,90,0.00,,,0.00,Rainwise IP-100,2013-09-28 13:36:00,
2013-09-28 09:41:00,56.2,53.0,30.38,NNW,337,2.8,4.0,89,0.00,,,0.00,Rainwise IP-100,2013-09-28 13:41:00,
2013-09-28 09:46:00,56.8,53.0,30.38,NNW,337,2.8,4.0,88,0.00,,,0.00,Rainwise IP-100,2013-09-28 13:46:00,
2013-09-28 09:51:00,57.2,53.0,30.38,NNW,337,3.5,4.0,87,0.00,,,0.00,Rainwise IP-100,2013-09-28 13:51:00,
2013-09-28 09:56:00,57.5,53.0,30.38,NNW,337,2.6,4.0,86,0.00,,,0.00,Rainwise IP-100,2013-09-28 13:56:00,
2013-09-28 10:01:00,58.2,54.0,30.38,NNW,337,0.0,3.0,85,0.00,,,0.00,Rainwise IP-100,2013-09-28 14:01:00,
2013-09-28 10:06:00,59.4,54.0,30.38,NE,45,4.2,4.2,83,0.00,,,0.00,Rainwise IP-100,2013-09-28 14:06:00,
2013-09-28 10:11:00,59.6,53.0,30.38,ENE,67,1.4,5.0,81,0.00,,,0.00,Rainwise IP-100,2013-09-28 14:11:00,
2013-09-28 10:16:00,59.6,53.0,30.38,NNE,22,1.9,3.0,81,0.00,,,0.00,Rainwise IP-100,2013-09-28 14:16:00,
2013-09-28 10:21:00,60.4,54.0,30.38,East,90,4.2,4.2,79,0.00,,,0.00,Rainwise IP-100,2013-09-28 14:21:00,
2013-09-28 10:26:00,60.6,53.0,30.38,East,90,1.9,4.0,78,0.00,,,0.00,Rainwise IP-100,2013-09-28 14:26:00,
2013-09-28 10:31:00,60.1,53.0,30.38,East,90,1.4,4.0,77,0.00,,,0.00,Rainwise IP-100,2013-09-28 14:31:00,
2013-09-28 10:36:00,60.3,53.0,30.38,ENE,67,1.9,3.0,76,0.00,,,0.00,Rainwise IP-100,2013-09-28 14:36:00,
2013-09-28 10:41:00,61.2,53.0,30.37,ENE,67,2.8,4.0,75,0.00,,,0.00,Rainwise IP-100,2013-09-28 14:41:00,
2013-09-28 10:46:00,61.6,53.0,30.38,East,90,2.3,4.0,74,0.00,,,0.00,Rainwise IP-100,2013-09-28 14:46:00,
2013-09-28 10:51:00,61.7,53.0,30.37,East,90,1.6,5.0,73,0.00,,,0.00,Rainwise IP-100,2013-09-28 14:51:00,
2013-09-28 10:56:00,62.2,53.0,30.37,ENE,67,4.7,5.0,72,0.00,,,0.00,Rainwise IP-100,2013-09-28 14:56:00,
2013-09-28 11:01:00,62.4,53.0,30.37,ENE,67,3.0,4.0,71,0.00,,,0.00,Rainwise IP-100,2013-09-28 15:01:00,
2013-09-28 11:06:00,62.9,53.0,30.38,ENE,67,2.6,4.0,70,0.00,,,0.00,Rainwise IP-100,2013-09-28 15:06:00,
2013-09-28 11:11:00,63.9,53.0,30.38,ENE,67,0.0,3.0,69,0.00,,,0.00,Rainwise IP-100,2013-09-28 15:11:00,
2013-09-28 11:16:00,64.2,53.0,30.37,ESE,112,2.6,4.0,67,0.00,,,0.00,Rainwise IP-100,2013-09-28 15:16:00,
2013-09-28 11:21:00,63.1,52.0,30.38,ESE,112,6.1,10.0,68,0.00,,,0.00,Rainwise IP-100,2013-09-28 15:21:00,
2013-09-28 11:26:00,61.3,51.0,30.37,SE,135,3.5,7.0,71,0.00,,,0.00,Rainwise IP-100,2013-09-28 15:26:00,
2013-09-28 11:31:00,61.2,52.0,30.37,ESE,112,4.0,4.0,73,0.00,,,0.00,Rainwise IP-100,2013-09-28 15:31:00,
2013-09-28 11:36:00,62.0,53.0,30.37,ESE,112,5.1,6.0,73,0.00,,,0.00,Rainwise IP-100,2013-09-28 15:36:00,
2013-09-28 11:41:00,62.1,53.0,30.37,ESE,112,3.7,7.0,72,0.00,,,0.00,Rainwise IP-100,2013-09-28 15:41:00,
2013-09-28 11:46:00,61.9,53.0,30.37,ESE,112,3.7,7.0,72,0.00,,,0.00,Rainwise IP-100,2013-09-28 15:46:00,
2013-09-28 11:51:00,61.9,53.0,30.37,SSE,157,4.9,6.0,71,0.00,,,0.00,Rainwise IP-100,2013-09-28 15:51:00,
2013-09-28 11:56:00,62.4,53.0,30.37,ESE,112,4.9,7.0,71,0.00,,,0.00,Rainwise IP-100,2013-09-28 15:56:00,
2013-09-28 12:01:00,62.9,53.0,30.37,SE,135,2.3,5.0,71,0.00,,,0.00,Rainwise IP-100,2013-09-28 16:01:00,
2013-09-28 12:06:00,63.6,53.0,30.37,SSE,157,4.0,5.0,70,0.00,,,0.00,Rainwise IP-100,2013-09-28 16:06:00,
2013-09-28 12:11:00,64.3,53.0,30.37,East,90,1.9,5.0,69,0.00,,,0.00,Rainwise IP-100,2013-09-28 16:11:00,
2013-09-28 12:16:00,64.8,53.0,30.36,ENE,67,1.6,3.0,67,0.00,,,0.00,Rainwise IP-100,2013-09-28 16:16:00,
2013-09-28 12:21:00,65.4,54.0,30.37,ESE,112,4.9,4.9,66,0.00,,,0.00,Rainwise IP-100,2013-09-28 16:21:00,
2013-09-28 12:26:00,65.2,53.0,30.36,ESE,112,4.0,6.0,66,0.00,,,0.00,Rainwise IP-100,2013-09-28 16:26:00,
2013-09-28 12:31:00,64.5,53.0,30.36,ESE,112,4.4,7.0,67,0.00,,,0.00,Rainwise IP-100,2013-09-28 16:31:00,
2013-09-28 12:36:00,63.3,52.0,30.36,ESE,112,7.9,9.0,68,0.00,,,0.00,Rainwise IP-100,2013-09-28 16:36:00,
2013-09-28 12:41:00,61.8,52.0,30.36,ESE,112,6.3,10.0,70,0.00,,,0.00,Rainwise IP-100,2013-09-28 16:41:00,
2013-09-28 12:46:00,61.1,52.0,30.36,ESE,112,7.5,9.0,73,0.00,,,0.00,Rainwise IP-100,2013-09-28 16:46:00,
2013-09-28 12:51:00,61.2,53.0,30.36,ESE,112,3.5,9.0,74,0.00,,,0.00,Rainwise IP-100,2013-09-28 16:51:00,
2013-09-28 12:56:00,61.7,53.0,30.36,ESE,112,6.8,7.0,74,0.00,,,0.00,Rainwise IP-100,2013-09-28 16:56:00,
2013-09-28 13:01:00,62.0,53.0,30.35,ESE,112,5.6,7.0,74,0.00,,,0.00,Rainwise IP-100,2013-09-28 17:01:00,
2013-09-28 13:06:00,61.9,54.0,30.35,ESE,112,3.3,7.0,75,0.00,,,0.00,Rainwise IP-100,2013-09-28 17:06:00,
2013-09-28 13:11:00,62.0,53.0,30.35,ESE,112,7.2,9.0,74,0.00,,,0.00,Rainwise IP-100,2013-09-28 17:11:00,
2013-09-28 13:16:00,62.1,53.0,30.35,SE,135,3.7,9.0,74,0.00,,,0.00,Rainwise IP-100,2013-09-28 17:16:00,
2013-09-28 13:21:00,61.7,53.0,30.34,ESE,112,9.6,12.0,73,0.00,,,0.00,Rainwise IP-100,2013-09-28 17:21:00,
2013-09-28 13:26:00,61.4,53.0,30.34,ESE,112,4.9,11.0,72,0.00,,,0.00,Rainwise IP-100,2013-09-28 17:26:00,
2013-09-28 13:31:00,61.7,52.0,30.34,ESE,112,6.3,8.0,71,0.00,,,0.00,Rainwise IP-100,2013-09-28 17:31:00,
2013-09-28 13:36:00,62.0,52.0,30.34,SE,135,6.8,10.0,70,0.00,,,0.00,Rainwise IP-100,2013-09-28 17:36:00,
2013-09-28 13:41:00,62.0,52.0,30.34,ESE,112,5.8,8.0,70,0.00,,,0.00,Rainwise IP-100,2013-09-28 17:41:00,
2013-09-28 13:46:00,62.1,52.0,30.34,ESE,112,3.7,9.0,70,0.00,,,0.00,Rainwise IP-100,2013-09-28 17:46:00,
2013-09-28 13:50:00,62.4,52.0,30.34,ESE,112,2.1,6.0,69,0.00,,,0.00,Rainwise IP-100,2013-09-28 17:50:00,
2013-09-28 13:55:00,63.2,52.0,30.34,ESE,112,3.7,7.0,68,0.00,,,0.00,Rainwise IP-100,2013-09-28 17:55:00,
2013-09-28 14:00:00,63.8,53.0,30.33,SSE,157,5.6,9.0,67,0.00,,,0.00,Rainwise IP-100,2013-09-28 18:00:00,
2013-09-28 14:05:00,63.7,53.0,30.34,ESE,112,3.7,9.0,67,0.00,,,0.00,Rainwise IP-100,2013-09-28 18:05:00,
2013-09-28 14:10:00,64.1,53.0,30.34,ESE,112,6.3,8.0,66,0.00,,,0.00,Rainwise IP-100,2013-09-28 18:10:00,
2013-09-28 14:15:00,64.7,53.0,30.34,ESE,112,5.8,8.0,65,0.00,,,0.00,Rainwise IP-100,2013-09-28 18:15:00,
2013-09-28 14:20:00,65.1,53.0,30.33,ESE,112,5.4,6.0,64,0.00,,,0.00,Rainwise IP-100,2013-09-28 18:20:00,
2013-09-28 14:25:00,65.9,53.0,30.33,SSE,157,4.4,7.0,63,0.00,,,0.00,Rainwise IP-100,2013-09-28 18:25:00,
2013-09-28 14:30:00,66.4,53.0,30.33,ESE,112,4.9,7.0,62,0.00,,,0.00,Rainwise IP-100,2013-09-28 18:30:00,
2013-09-28 14:35:00,66.6,53.0,30.33,ESE,112,6.8,8.0,62,0.00,,,0.00,Rainwise IP-100,2013-09-28 18:35:00,
2013-09-28 14:40:00,66.5,54.0,30.33,ESE,112,6.8,9.0,63,0.00,,,0.00,Rainwise IP-100,2013-09-28 18:40:00,
2013-09-28 14:45:00,66.4,53.0,30.33,ESE,112,5.1,9.0,63,0.00,,,0.00,Rainwise IP-100,2013-09-28 18:45:00,
2013-09-28 14:50:00,66.3,53.0,30.33,ESE,112,5.6,8.0,63,0.00,,,0.00,Rainwise IP-100,2013-09-28 18:50:00,
2013-09-28 14:55:00,66.5,54.0,30.33,ESE,112,4.4,7.0,63,0.00,,,0.00,Rainwise IP-100,2013-09-28 18:55:00,
2013-09-28 15:00:00,66.8,54.0,30.33,ESE,112,5.1,8.0,63,0.00,,,0.00,Rainwise IP-100,2013-09-28 19:00:00,
2013-09-28 15:05:00,66.6,54.0,30.33,ESE,112,4.9,9.0,63,0.00,,,0.00,Rainwise IP-100,2013-09-28 19:05:00,
2013-09-28 15:10:00,66.8,54.0,30.33,ESE,112,3.3,7.0,63,0.00,,,0.00,Rainwise IP-100,2013-09-28 19:10:00,
2013-09-28 15:15:00,67.3,54.0,30.33,ESE,112,5.1,7.0,63,0.00,,,0.00,Rainwise IP-100,2013-09-28 19:15:00,
2013-09-28 15:20:00,67.7,54.0,30.32,ESE,112,4.9,6.0,62,0.00,,,0.00,Rainwise IP-100,2013-09-28 19:20:00,
2013-09-28 15:25:00,67.7,54.0,30.33,ESE,112,6.5,7.0,62,0.00,,,0.00,Rainwise IP-100,2013-09-28 19:25:00,
2013-09-28 15:30:00,67.4,54.0,30.33,ESE,112,3.0,7.0,62,0.00,,,0.00,Rainwise IP-100,2013-09-28 19:30:00,
2013-09-28 15:35:00,67.6,54.0,30.32,SSE,157,1.9,7.0,63,0.00,,,0.00,Rainwise IP-100,2013-09-28 19:35:00,
2013-09-28 15:40:00,68.0,54.0,30.32,ESE,112,4.7,7.0,62,0.00,,,0.00,Rainwise IP-100,2013-09-28 19:40:00,
2013-09-28 15:45:00,68.1,54.0,30.33,ESE,112,5.8,8.0,61,0.00,,,0.00,Rainwise IP-100,2013-09-28 19:45:00,
2013-09-28 15:50:00,67.7,53.0,30.32,ESE,112,5.6,8.0,61,0.00,,,0.00,Rainwise IP-100,2013-09-28 19:50:00,
2013-09-28 15:55:00,67.7,53.0,30.33,ESE,112,4.4,8.0,60,0.00,,,0.00,Rainwise IP-100,2013-09-28 19:55:00,
2013-09-28 16:00:00,67.9,53.0,30.32,East,90,2.6,7.0,60,0.00,,,0.00,Rainwise IP-100,2013-09-28 20:00:00,
2013-09-28 16:05:00,68.0,53.0,30.33,SSE,157,3.3,6.0,59,0.00,,,0.00,Rainwise IP-100,2013-09-28 20:05:00,
2013-09-28 16:10:00,68.1,53.0,30.33,SSW,202,0.0,6.0,59,0.00,,,0.00,Rainwise IP-100,2013-09-28 20:10:00,
2013-09-28 16:15:00,68.4,53.0,30.32,SW,225,2.8,6.0,59,0.00,,,0.00,Rainwise IP-100,2013-09-28 20:15:00,
2013-09-28 16:20:00,68.8,53.0,30.32,SSE,157,3.3,5.0,59,0.00,,,0.00,Rainwise IP-100,2013-09-28 20:20:00,
2013-09-28 16:25:00,68.4,53.0,30.32,SSE,157,4.7,7.0,59,0.00,,,0.00,Rainwise IP-100,2013-09-28 20:25:00,
2013-09-28 16:30:00,67.6,53.0,30.32,SSE,157,3.3,7.0,60,0.00,,,0.00,Rainwise IP-100,2013-09-28 20:30:00,
2013-09-28 16:35:00,67.2,53.0,30.32,South,180,6.5,7.0,60,0.00,,,0.00,Rainwise IP-100,2013-09-28 20:35:00,
2013-09-28 16:40:00,67.2,53.0,30.32,SSW,202,1.6,7.0,61,0.00,,,0.00,Rainwise IP-100,2013-09-28 20:40:00,
2013-09-28 16:45:00,67.3,54.0,30.32,South,180,3.5,6.0,62,0.00,,,0.00,Rainwise IP-100,2013-09-28 20:45:00,
2013-09-28 16:50:00,67.3,54.0,30.32,SSW,202,1.2,5.0,62,0.00,,,0.00,Rainwise IP-100,2013-09-28 20:50:00,
2013-09-28 16:55:00,67.3,54.0,30.32,South,180,2.8,5.0,62,0.00,,,0.00,Rainwise IP-100,2013-09-28 20:55:00,
2013-09-28 17:00:00,67.2,54.0,30.32,SSE,157,3.0,6.0,62,0.00,,,0.00,Rainwise IP-100,2013-09-28 21:00:00,
2013-09-28 17:05:00,66.9,54.0,30.33,SSE,157,1.4,6.0,63,0.00,,,0.00,Rainwise IP-100,2013-09-28 21:05:00,
2013-09-28 17:10:00,66.3,53.0,30.33,South,180,6.5,6.5,63,0.00,,,0.00,Rainwise IP-100,2013-09-28 21:10:00,
2013-09-28 17:15:00,65.7,53.0,30.32,South,180,0.0,7.0,65,0.00,,,0.00,Rainwise IP-100,2013-09-28 21:15:00,
2013-09-28 17:20:00,65.3,53.0,30.32,SSE,157,3.7,6.0,66,0.00,,,0.00,Rainwise IP-100,2013-09-28 21:20:00,
2013-09-28 17:25:00,64.5,53.0,30.32,SSE,157,3.7,7.0,66,0.00,,,0.00,Rainwise IP-100,2013-09-28 21:25:00,
2013-09-28 17:30:00,63.9,53.0,30.32,SSW,202,6.3,7.0,67,0.00,,,0.00,Rainwise IP-100,2013-09-28 21:30:00,
2013-09-28 17:35:00,63.5,53.0,30.32,South,180,2.8,7.0,68,0.00,,,0.00,Rainwise IP-100,2013-09-28 21:35:00,
2013-09-28 17:40:00,63.1,53.0,30.32,South,180,4.7,7.0,70,0.00,,,0.00,Rainwise IP-100,2013-09-28 21:40:00,
2013-09-28 17:45:00,62.7,53.0,30.32,SSE,157,4.2,7.0,70,0.00,,,0.00,Rainwise IP-100,2013-09-28 21:45:00,
2013-09-28 17:50:00,62.3,53.0,30.32,SSW,202,1.2,7.0,71,0.00,,,0.00,Rainwise IP-100,2013-09-28 21:50:00,
2013-09-28 17:55:00,61.9,53.0,30.32,SSW,202,1.2,8.0,72,0.00,,,0.00,Rainwise IP-100,2013-09-28 21:55:00,
2013-09-28 18:00:00,61.5,53.0,30.33,SSE,157,4.2,4.2,72,0.00,,,0.00,Rainwise IP-100,2013-09-28 22:00:00,
2013-09-28 18:05:00,61.1,52.0,30.33,SSW,202,1.4,4.0,73,0.00,,,0.00,Rainwise IP-100,2013-09-28 22:05:00,
2013-09-28 18:10:00,60.7,52.0,30.33,SSW,202,0.0,3.0,74,0.00,,,0.00,Rainwise IP-100,2013-09-28 22:10:00,
2013-09-28 18:15:00,60.4,52.0,30.33,SSW,202,3.0,3.0,74,0.00,,,0.00,Rainwise IP-100,2013-09-28 22:15:00,
2013-09-28 18:20:00,60.1,52.0,30.33,South,180,1.4,4.0,75,0.00,,,0.00,Rainwise IP-100,2013-09-28 22:20:00,
2013-09-28 18:25:00,59.9,53.0,30.33,SSE,157,2.3,6.0,76,0.00,,,0.00,Rainwise IP-100,2013-09-28 22:25:00,
2013-09-28 18:30:00,59.8,52.0,30.33,SSW,202,3.7,4.0,76,0.00,,,0.00,Rainwise IP-100,2013-09-28 22:30:00,
2013-09-28 18:35:00,59.6,52.0,30.33,South,180,2.3,5.0,76,0.00,,,0.00,Rainwise IP-100,2013-09-28 22:35:00,
2013-09-28 18:40:00,59.3,51.0,30.33,SSW,202,3.5,4.0,76,0.00,,,0.00,Rainwise IP-100,2013-09-28 22:40:00,
2013-09-28 18:45:00,58.9,52.0,30.33,SSW,202,0.0,3.0,77,0.00,,,0.00,Rainwise IP-100,2013-09-28 22:45:00,
2013-09-28 18:50:00,58.5,52.0,30.33,SSW,202,0.0,1.0,78,0.00,,,0.00,Rainwise IP-100,2013-09-28 22:50:00,
2013-09-28 18:55:00,58.2,52.0,30.33,SSW,202,0.0,2.0,79,0.00,,,0.00,Rainwise IP-100,2013-09-28 22:55:00,
2013-09-28 19:00:00,57.8,52.0,30.33,SSW,202,1.6,1.6,81,0.00,,,0.00,Rainwise IP-100,2013-09-28 23:00:00,
2013-09-28 19:05:00,57.4,52.0,30.33,SSW,202,0.0,1.0,82,0.00,,,0.00,Rainwise IP-100,2013-09-28 23:05:00,
2013-09-28 19:10:00,57.2,52.0,30.33,SW,225,1.9,2.0,83,0.00,,,0.00,Rainwise IP-100,2013-09-28 23:10:00,
2013-09-28 19:15:00,57.1,52.0,30.33,SW,225,1.4,2.0,84,0.00,,,0.00,Rainwise IP-100,2013-09-28 23:15:00,
2013-09-28 19:20:00,56.9,52.0,30.33,SW,225,0.0,2.0,84,0.00,,,0.00,Rainwise IP-100,2013-09-28 23:20:00,
2013-09-28 19:25:00,56.8,51.0,30.33,SW,225,0.0,1.0,83,0.00,,,0.00,Rainwise IP-100,2013-09-28 23:25:00,
2013-09-28 19:30:00,56.9,52.0,30.32,SW,225,0.0,2.0,82,0.00,,,0.00,Rainwise IP-100,2013-09-28 23:30:00,
2013-09-28 19:35:00,56.9,52.0,30.33,SW,225,1.6,1.6,82,0.00,,,0.00,Rainwise IP-100,2013-09-28 23:35:00,
2013-09-28 19:40:00,56.5,51.0,30.33,SW,225,0.0,2.0,82,0.00,,,0.00,Rainwise IP-100,2013-09-28 23:40:00,
2013-09-28 19:45:00,56.1,50.0,30.33,South,180,0.0,2.0,83,0.00,,,0.00,Rainwise IP-100,2013-09-28 23:45:00,
2013-09-28 19:50:00,55.7,51.0,30.33,South,180,0.0,0.0,84,0.00,,,0.00,Rainwise IP-100,2013-09-28 23:50:00,
2013-09-28 19:55:00,55.3,50.0,30.33,South,180,0.0,0.0,84,0.00,,,0.00,Rainwise IP-100,2013-09-28 23:55:00,
2013-09-28 20:00:00,55.3,50.0,30.33,South,180,1.6,2.0,84,0.00,,,0.00,Rainwise IP-100,2013-09-29 00:00:00,
2013-09-28 20:05:00,55.4,50.0,30.33,SW,225,1.2,1.2,84,0.00,,,0.00,Rainwise IP-100,2013-09-29 00:05:00,
2013-09-28 20:10:00,55.3,50.0,30.33,SW,225,0.0,2.0,84,0.00,,,0.00,Rainwise IP-100,2013-09-29 00:10:00,
2013-09-28 20:15:00,55.2,50.0,30.33,SW,225,1.4,1.4,84,0.00,,,0.00,Rainwise IP-100,2013-09-29 00:15:00,
2013-09-28 20:20:00,55.2,50.0,30.33,SW,225,0.0,1.0,84,0.00,,,0.00,Rainwise IP-100,2013-09-29 00:20:00,
2013-09-28 20:25:00,54.8,50.0,30.33,SW,225,0.0,0.0,84,0.00,,,0.00,Rainwise IP-100,2013-09-29 00:25:00,
2013-09-28 20:30:00,54.5,50.0,30.33,SW,225,0.0,0.0,85,0.00,,,0.00,Rainwise IP-100,2013-09-29 00:30:00,
2013-09-28 20:35:00,54.5,50.0,30.33,SW,225,0.0,0.0,85,0.00,,,0.00,Rainwise IP-100,2013-09-29 00:35:00,
2013-09-28 20:40:00,54.6,50.0,30.33,SSE,157,0.0,1.0,86,0.00,,,0.00,Rainwise IP-100,2013-09-29 00:40:00,
2013-09-28 20:45:00,54.5,50.0,30.33,SSE,157,0.0,1.0,86,0.00,,,0.00,Rainwise IP-100,2013-09-29 00:45:00,
2013-09-28 20:50:00,54.6,50.0,30.33,ENE,67,0.0,2.0,86,0.00,,,0.00,Rainwise IP-100,2013-09-29 00:50:00,
2013-09-28 20:55:00,54.7,51.0,30.33,ENE,67,0.0,0.0,88,0.00,,,0.00,Rainwise IP-100,2013-09-29 00:55:00,
2013-09-28 21:00:00,54.4,51.0,30.33,ENE,67,0.0,0.0,89,0.00,,,0.00,Rainwise IP-100,2013-09-29 01:00:00,
2013-09-28 21:05:00,53.9,50.0,30.33,ENE,67,0.0,0.0,89,0.00,,,0.00,Rainwise IP-100,2013-09-29 01:05:00,
2013-09-28 21:10:00,53.5,50.0,30.33,ENE,67,0.0,0.0,90,0.00,,,0.00,Rainwise IP-100,2013-09-29 01:10:00,
2013-09-28 21:15:00,53.2,50.0,30.33,ENE,67,0.0,0.0,90,0.00,,,0.00,Rainwise IP-100,2013-09-29 01:15:00,
2013-09-28 21:20:00,52.8,50.0,30.33,ENE,67,0.0,0.0,91,0.00,,,0.00,Rainwise IP-100,2013-09-29 01:20:00,
2013-09-28 21:25:00,52.5,50.0,30.33,ENE,67,0.0,1.0,91,0.00,,,0.00,Rainwise IP-100,2013-09-29 01:25:00,
2013-09-28 21:30:00,52.3,50.0,30.33,ENE,67,0.0,0.0,92,0.00,,,0.00,Rainwise IP-100,2013-09-29 01:30:00,
2013-09-28 21:35:00,52.1,50.0,30.33,ENE,67,0.0,0.0,93,0.00,,,0.00,Rainwise IP-100,2013-09-29 01:35:00,
2013-09-28 21:40:00,51.9,50.0,30.33,ENE,67,0.0,0.0,93,0.00,,,0.00,Rainwise IP-100,2013-09-29 01:40:00,
2013-09-28 21:45:00,51.8,50.0,30.33,ENE,67,0.0,0.0,94,0.00,,,0.00,Rainwise IP-100,2013-09-29 01:45:00,
2013-09-28 21:50:00,51.7,50.0,30.33,ENE,67,0.0,0.0,94,0.00,,,0.00,Rainwise IP-100,2013-09-29 01:50:00,
2013-09-28 21:55:00,51.5,50.0,30.33,ENE,67,0.0,0.0,94,0.00,,,0.00,Rainwise IP-100,2013-09-29 01:55:00,
2013-09-28 22:00:00,51.3,50.0,30.33,ENE,67,0.0,1.0,94,0.00,,,0.00,Rainwise IP-100,2013-09-29 02:00:00,
2013-09-28 22:05:00,51.4,50.0,30.33,SSW,202,0.0,3.0,95,0.00,,,0.00,Rainwise IP-100,2013-09-29 02:05:00,
2013-09-28 22:10:00,51.5,50.0,30.33,WSW,247,0.0,3.0,95,0.00,,,0.00,Rainwise IP-100,2013-09-29 02:10:00,
2013-09-28 22:15:00,51.4,50.0,30.32,WSW,247,0.0,3.0,94,0.00,,,0.00,Rainwise IP-100,2013-09-29 02:15:00,
2013-09-28 22:20:00,51.6,50.0,30.32,WSW,247,1.9,4.0,93,0.00,,,0.00,Rainwise IP-100,2013-09-29 02:20:00,
2013-09-28 22:25:00,51.8,49.0,30.33,WNW,292,0.0,2.0,91,0.00,,,0.00,Rainwise IP-100,2013-09-29 02:25:00,
2013-09-28 22:30:00,52.2,49.0,30.32,WSW,247,0.0,2.0,89,0.00,,,0.00,Rainwise IP-100,2013-09-29 02:30:00,
2013-09-28 22:35:00,52.9,49.0,30.32,SSW,202,0.0,4.0,87,0.00,,,0.00,Rainwise IP-100,2013-09-29 02:35:00,
2013-09-28 22:40:00,53.3,48.0,30.32,SSE,157,1.9,4.0,85,0.00,,,0.00,Rainwise IP-100,2013-09-29 02:40:00,
2013-09-28 22:45:00,52.8,48.0,30.32,SSE,157,4.4,5.0,85,0.00,,,0.00,Rainwise IP-100,2013-09-29 02:45:00,
2013-09-28 22:50:00,52.2,48.0,30.32,South,180,3.3,5.0,86,0.00,,,0.00,Rainwise IP-100,2013-09-29 02:50:00,
2013-09-28 22:55:00,51.8,48.0,30.32,SSW,202,2.1,5.0,88,0.00,,,0.00,Rainwise IP-100,2013-09-29 02:55:00,
2013-09-28 23:00:00,52.1,48.0,30.32,SSE,157,2.1,3.0,88,0.00,,,0.00,Rainwise IP-100,2013-09-29 03:00:00,
2013-09-28 23:05:00,52.2,48.0,30.32,NNW,337,1.4,2.0,87,0.00,,,0.00,Rainwise IP-100,2013-09-29 03:05:00,
2013-09-28 23:10:00,52.0,48.0,30.33,WSW,247,0.0,2.0,87,0.00,,,0.00,Rainwise IP-100,2013-09-29 03:10:00,
2013-09-28 23:15:00,51.9,48.0,30.32,NNW,337,0.0,3.0,88,0.00,,,0.00,Rainwise IP-100,2013-09-29 03:15:00,
2013-09-28 23:21:00,52.0,49.0,30.33,WSW,247,0.0,3.0,89,0.00,,,0.00,Rainwise IP-100,2013-09-29 03:21:00,
2013-09-28 23:26:00,52.1,49.0,30.32,West,270,0.0,2.0,89,0.00,,,0.00,Rainwise IP-100,2013-09-29 03:26:00,
2013-09-28 23:31:00,52.4,49.0,30.32,SW,225,1.4,4.0,89,0.00,,,0.00,Rainwise IP-100,2013-09-29 03:31:00,
2013-09-28 23:36:00,52.7,49.0,30.31,SSW,202,2.8,4.0,88,0.00,,,0.00,Rainwise IP-100,2013-09-29 03:36:00,
2013-09-28 23:41:00,52.8,48.0,30.31,SSE,157,0.0,3.0,86,0.00,,,0.00,Rainwise IP-100,2013-09-29 03:41:00,
2013-09-28 23:46:00,52.6,48.0,30.31,WNW,292,2.6,3.0,86,0.00,,,0.00,Rainwise IP-100,2013-09-29 03:46:00,
2013-09-28 23:51:00,52.6,48.0,30.31,North,360,3.5,4.0,86,0.00,,,0.00,Rainwise IP-100,2013-09-29 03:51:00,
2013-09-28 23:56:00,52.7,48.0,30.31,WNW,292,3.0,3.0,86,0.00,,,0.00,Rainwise IP-100,2013-09-29 03:56:00,